TimeMDT,TemperatureF,Dew PointF,Humidity,Sea Level PressureIn,VisibilityMPH,Wind Direction,Wind SpeedMPH,Gust SpeedMPH,PrecipitationIn,Events,Conditions,WindDirDegrees,DateUTC
12:53 AM,62.1,52.0,70,30.16,10.0,East,10.4,-,N/A,,Partly Cloudy,100,2013-07-14 06:53:00
1:53 AM,62.1,48.9,62,30.15,10.0,NE,9.2,-,N/A,,Scattered Clouds,50,2013-07-14 07:53:00
2:53 AM,60.1,50.0,69,30.15,10.0,North,8.1,-,N/A,,Mostly Cloudy,10,2013-07-14 08:53:00
3:53 AM,59.0,50.0,72,30.15,10.0,NNE,6.9,-,N/A,,Scattered Clouds,20,2013-07-14 09:53:00
4:53 AM,57.0,48.9,74,30.17,10.0,NNE,8.1,-,N/A,,Scattered Clouds,20,2013-07-14 10:53:00
5:53 AM,57.9,50.0,75,30.18,10.0,NE,5.8,-,N/A,,Mostly Cloudy,40,2013-07-14 11:53:00
6:53 AM,59.0,51.1,75,30.19,10.0,NNE,5.8,-,N/A,,Mostly Cloudy,20,2013-07-14 12:53:00
7:53 AM,63.0,52.0,67,30.18,10.0,NE,5.8,-,N/A,,Scattered Clouds,50,2013-07-14 13:53:00
8:53 AM,66.9,48.0,51,30.16,10.0,East,10.4,-,N/A,,Partly Cloudy,90,2013-07-14 14:53:00
9:53 AM,72.0,42.1,34,30.15,10.0,East,11.5,-,N/A,,Partly Cloudy,100,2013-07-14 15:53:00
10:53 AM,73.9,42.1,32,30.13,10.0,ESE,13.8,-,N/A,,Partly Cloudy,110,2013-07-14 16:53:00
11:53 AM,75.0,46.9,37,30.12,10.0,ESE,8.1,-,N/A,,Partly Cloudy,120,2013-07-14 17:53:00
12:53 PM,77.0,50.0,39,30.10,10.0,East,8.1,16.1,N/A,,Partly Cloudy,90,2013-07-14 18:53:00
1:53 PM,80.1,51.1,36,30.07,10.0,SE,9.2,-,N/A,,Partly Cloudy,140,2013-07-14 19:53:00
2:53 PM,82.9,51.1,33,30.04,10.0,East,11.5,-,N/A,,Partly Cloudy,80,2013-07-14 20:53:00
3:53 PM,82.9,51.1,33,30.01,10.0,NNE,10.4,-,N/A,,Partly Cloudy,30,2013-07-14 21:53:00
4:53 PM,84.9,51.1,31,30.00,10.0,NE,12.7,23.0,N/A,,Partly Cloudy,40,2013-07-14 22:53:00
5:53 PM,84.0,51.1,32,29.99,10.0,ENE,16.1,23.0,N/A,,Partly Cloudy,60,2013-07-14 23:53:00
6:53 PM,82.0,51.1,34,29.98,10.0,ENE,17.3,-,N/A,,Partly Cloudy,60,2013-07-15 00:53:00
7:53 PM,79.0,52.0,39,29.98,10.0,ENE,15.0,-,N/A,,Partly Cloudy,60,2013-07-15 01:53:00
8:53 PM,75.0,52.0,44,29.98,10.0,ENE,11.5,-,N/A,,Partly Cloudy,60,2013-07-15 02:53:00
9:53 PM,72.0,52.0,49,29.99,10.0,ENE,6.9,-,N/A,,Partly Cloudy,70,2013-07-15 03:53:00
10:53 PM,70.0,53.1,55,29.98,10.0,NE,8.1,-,N/A,,Clear,50,2013-07-15 04:53:00
11:53 PM,68.0,55.0,63,29.98,10.0,NNE,5.8,-,N/A,,Clear,30,2013-07-15 05:53:00